Theta_e
297 297 297 296 296 296 296 296 295 295 295 294 295 295 295 295 294 294 293 293 292 292 291 290 289 289 289 288 288 287 287 288 288 288 288 288 287 287 287 286 286 286
296 296 296 296 296 295 295 296 296 295 295 295 296 296 295 294 293 293 293 292 292 291 290 290 289 289 288 288 288 287 287 287 287 287 287 287 287 286 286 286 285 285
296 296 296 296 296 295 295 295 295 295 295 295 295 295 294 294 293 293 292 292 291 291 290 289 289 288 288 288 287 287 287 287 287 287 287 287 286 286 285 285 285 285
296 296 296 296 296 295 295 295 295 295 295 294 294 294 294 294 293 293 292 292 291 291 290 289 289 288 288 288 287 287 286 286 286 287 287 286 286 285 285 285 284 284
296 296 296 296 296 295 295 295 295 294 294 294 294 294 294 294 293 292 292 292 291 291 290 289 288 288 288 287 287 287 286 286 286 286 286 286 286 285 285 284 284 284
295 296 295 295 295 295 295 295 294 294 294 294 294 294 294 293 293 293 292 292 291 290 290 289 288 288 287 287 287 286 286 286 286 286 286 286 286 285 284 284 284 283
295 295 295 295 295 294 295 294 294 294 294 294 293 293 293 292 292 292 292 292 291 291 290 289 289 288 287 287 286 286 286 285 285 286 285 286 285 285 284 284 283 283
294 294 294 294 294 294 294 294 294 294 294 294 293 293 293 292 292 292 292 292 291 290 290 289 289 289 288 287 286 286 285 285 285 285 285 285 285 285 284 284 283 283
293 293 293 293 293 293 294 294 294 294 294 293 293 293 292 292 292 292 291 291 291 290 290 289 289 288 288 287 286 286 285 285 285 285 285 285 285 285 284 284 283 283
293 293 293 293 293 293 293 293 293 293 293 293 292 292 292 292 292 292 291 291 290 290 290 289 289 288 287 287 286 286 285 285 285 285 285 285 285 285 285 284 283 283
293 293 293 293 293 293 293 293 293 292 292 292 291 291 291 291 291 291 291 290 290 290 290 289 289 288 287 286 286 285 285 285 285 285 285 285 285 285 285 284 284 283
292 292 292 293 293 293 293 292 292 292 291 291 291 290 290 290 290 290 290 290 290 290 290 289 289 288 287 287 286 285 285 284 284 284 284 284 285 285 285 284 284 284
292 292 292 292 293 292 292 292 292 291 291 291 290 290 289 289 289 289 289 289 289 289 289 289 288 288 287 287 286 285 285 284 284 284 284 284 284 284 284 284 284 284
293 293 292 292 292 292 292 292 291 291 291 291 290 289 289 289 289 289 288 288 288 288 288 288 288 287 286 286 286 285 285 284 284 284 284 283 283 284 284 283 283 283
293 293 293 293 292 292 292 291 291 291 291 291 290 289 289 289 288 288 288 287 287 287 287 287 287 287 287 286 285 285 284 284 283 283 283 283 283 283 283 283 283 283
292 292 293 292 292 292 291 291 291 291 291 290 290 289 289 288 288 287 287 287 287 287 286 286 286 286 286 286 286 285 284 283 283 282 282 282 282 282 281 282 282 282
292 292 292 292 292 292 291 291 291 290 290 290 290 289 288 288 287 287 287 287 287 286 286 286 285 286 285 285 285 285 284 283 282 282 282 282 282 281 281 281 281 281
291 291 291 291 291 291 291 291 290 290 290 289 289 288 288 287 287 287 286 286 286 286 286 285 285 285 285 285 285 285 285 284 283 282 282 281 281 281 281 281 281 281
289 289 290 290 290 291 291 290 290 290 289 289 288 288 287 287 286 286 286 286 286 285 285 285 285 285 285 285 285 285 284 284 283 282 281 281 281 280 280 280 280 280
289 288 289 289 290 290 290 290 289 289 289 288 288 287 286 286 286 286 285 285 285 285 285 285 285 284 284 284 285 284 284 283 283 282 281 281 281 280 280 280 280 280
288 288 288 289 289 289 289 289 289 288 288 287 287 286 286 286 286 285 285 285 285 285 285 285 285 284 284 284 284 284 284 283 282 281 281 280 280 280 280 280 280 280
288 288 287 288 288 288 288 288 288 288 287 287 286 286 286 285 285 285 285 285 285 285 285 284 284 284 284 284 284 285 285 283 282 280 280 279 279 279 279 279 280 280
288 288 287 287 287 287 287 287 287 287 286 286 286 285 285 285 285 285 285 285 284 284 284 284 284 283 283 284 285 285 285 283 281 280 279 279 279 279 278 278 279 279
287 287 287 287 287 287 287 287 286 286 286 285 285 285 285 284 284 284 284 284 284 284 284 283 283 283 283 284 285 286 285 283 281 279 279 278 278 278 278 278 278 278
287 287 287 287 286 286 286 286 286 285 285 285 284 284 284 284 284 284 283 283 283 283 283 283 283 282 283 284 285 286 285 283 280 279 278 277 277 276 276 276 277 277
287 287 287 287 286 286 286 285 285 285 284 284 284 284 283 283 283 283 283 283 282 282 282 282 282 282 283 284 286 286 285 282 280 279 278 277 276 276 276 276 276 276
Wind_Speed
38 38 38 38 38 38 39 41 41 42 43 44 45 47 48 48 49 50 50 50 49 48 47 46 45 44 43 41 40 39 37 35 34 32 31 29 27 25 24 24 23 23
39 38 37 36 37 37 38 40 41 42 43 44 45 44 45 45 46 47 49 48 48 48 47 47 46 45 43 43 41 40 38 36 35 34 32 30 28 26 25 24 23 23
39 39 38 37 37 37 37 38 39 40 41 42 42 42 41 42 43 44 46 47 47 46 46 46 46 45 44 43 42 41 39 38 37 35 33 31 29 27 25 24 24 23
38 39 40 40 39 38 37 37 38 40 40 40 40 40 40 40 41 42 44 45 45 45 46 46 45 45 44 43 43 41 40 38 37 36 34 32 30 28 26 25 25 24
39 40 40 40 40 38 38 39 40 41 41 41 41 40 41 41 41 42 43 45 45 45 45 45 45 45 44 44 43 42 41 39 38 36 35 34 32 29 27 27 26 25
38 40 41 41 40 39 39 40 41 41 41 41 40 40 41 41 42 43 44 44 45 45 45 45 45 44 44 44 43 43 42 41 39 38 37 35 33 31 29 28 28 27
38 39 39 40 40 40 41 42 41 41 41 41 40 40 41 41 41 42 43 44 45 45 45 45 46 46 45 45 44 43 42 41 40 39 38 37 35 33 31 30 29 29
35 35 37 38 39 40 42 43 43 43 43 42 42 42 41 42 42 42 43 44 44 45 46 46 47 47 47 47 46 45 44 43 42 41 40 38 37 36 34 32 31 31
33 33 33 34 37 40 43 44 44 44 44 44 44 44 43 43 43 43 43 44 45 45 46 46 47 48 48 49 48 48 47 46 45 44 43 42 41 39 37 36 34 34
35 34 33 34 37 40 43 44 44 43 43 44 44 44 44 44 44 44 44 45 46 46 47 47 48 48 48 49 49 49 49 48 47 46 45 45 44 42 40 39 38 37
36 36 36 38 40 42 44 44 42 42 43 43 44 44 44 45 45 46 47 47 48 48 49 49 48 48 48 49 49 49 49 48 48 47 47 46 45 44 43 42 41 40
35 35 37 41 42 45 45 43 40 39 39 40 42 43 43 44 45 47 48 49 50 50 50 49 49 49 49 50 50 49 49 48 48 48 47 47 46 45 45 44 43 41
34 35 38 41 43 44 44 41 39 39 39 40 40 41 42 43 44 45 47 48 49 50 50 50 49 49 49 50 50 50 50 49 49 49 48 48 47 46 46 45 44 42
34 35 38 40 42 42 41 40 39 39 41 42 41 42 43 44 44 45 45 44 45 46 48 48 48 49 49 49 50 51 51 51 51 51 49 48 47 46 46 45 44 42
34 35 37 39 40 40 40 39 39 39 40 40 41 43 44 43 43 42 42 42 42 43 44 45 47 49 51 52 51 51 51 51 50 50 49 48 47 46 45 44 44 43
32 33 35 37 38 39 39 39 39 39 38 40 41 43 42 41 40 40 41 42 42 42 43 44 47 49 52 53 54 53 51 49 47 47 47 47 46 45 43 43 43 42
34 32 33 35 36 37 38 38 38 37 38 39 41 41 40 39 39 40 42 42 41 42 43 45 46 47 48 51 53 52 50 48 47 46 45 45 44 44 44 44 43 42
35 33 31 32 34 35 36 37 36 36 37 38 39 39 39 38 39 41 41 40 40 41 42 43 44 45 46 49 50 51 50 49 47 45 44 44 44 44 44 44 44 43
36 34 31 31 31 32 33 33 33 34 36 36 37 37 37 38 39 39 38 38 38 39 40 40 40 42 45 48 50 51 51 49 46 45 45 44 44 44 44 45 45 42
38 35 33 31 30 29 28 28 30 32 33 34 34 34 35 36 37 37 38 38 38 38 37 37 38 40 43 46 48 49 51 49 45 43 43 43 44 46 45 45 45 43
38 37 35 33 30 26 25 25 27 29 30 31 31 32 34 36 36 37 38 38 39 38 37 38 40 41 41 44 47 47 48 47 43 40 39 39 41 44 44 44 44 44
38 37 36 34 30 26 23 23 24 26 27 28 29 30 32 32 34 35 37 38 38 39 39 39 39 40 40 43 45 43 41 42 40 38 36 36 37 40 42 42 42 42
37 36 35 34 31 27 24 24 23 24 24 25 26 27 28 30 32 33 34 36 38 39 40 38 36 38 40 41 41 38 37 38 39 37 35 35 37 40 42 41 40 40
37 35 33 31 29 27 26 25 23 23 23 23 25 26 27 29 30 30 31 34 36 38 38 36 35 37 40 40 39 38 39 39 39 36 34 34 36 38 39 40 38 37
37 36 34 31 28 27 26 25 23 22 22 23 24 26 26 27 27 28 29 31 33 35 35 35 34 35 39 40 38 39 40 40 39 37 34 32 33 34 35 35 35 34
36 36 35 32 29 27 26 24 22 21 21 22 23 25 24 24 25 26 27 28 29 31 32 34 34 34 37 38 37 39 41 41 40 39 36 33 33 33 33 34 33 32
Wind_Direction
216 215 216 215 214 212 210 207 205 205 206 206 208 210 212 213 212 211 211 212 213 214 215 215 215 214 214 213 213 214 214 213 211 209 208 206 205 204 203 202 202 201
216 217 218 218 217 216 214 212 210 209 210 211 212 213 213 212 211 211 211 211 212 213 214 214 214 214 213 213 212 213 213 213 212 211 209 208 206 206 205 203 202 201
217 217 219 220 220 219 218 217 215 214 214 214 214 214 213 212 212 212 211 211 211 212 213 213 213 213 213 213 212 212 213 213 212 211 210 210 208 207 206 206 204 203
219 219 220 221 222 221 220 219 218 218 216 216 215 214 214 214 213 212 211 211 211 211 212 212 213 212 212 212 212 212 213 213 213 212 210 210 210 209 208 207 206 204
223 223 222 223 223 223 222 221 221 220 218 218 218 216 216 214 213 212 211 210 210 211 211 211 211 212 211 211 211 211 212 212 213 212 211 210 210 209 209 209 207 205
226 226 225 224 224 223 223 224 224 223 221 220 219 217 216 214 213 212 210 209 210 210 210 210 210 210 210 210 210 211 211 211 211 211 211 211 209 208 209 209 207 206
231 229 228 227 226 224 224 225 225 225 224 222 221 219 217 215 213 212 211 210 209 209 209 209 209 209 209 209 209 210 210 210 211 210 210 210 209 208 208 208 208 207
242 238 234 231 228 227 226 225 225 225 225 223 221 221 219 216 214 213 212 210 209 209 209 209 209 209 208 208 208 208 208 209 210 209 208 208 208 207 207 207 208 208
255 251 246 240 235 231 229 227 226 225 224 222 221 220 218 217 216 214 212 210 209 209 209 209 209 209 208 208 207 206 206 207 208 209 208 207 207 207 207 206 206 208
254 253 251 248 244 239 235 232 228 226 224 223 221 219 216 215 215 214 212 210 208 208 208 209 209 208 207 207 207 207 206 206 207 208 208 208 208 207 207 206 206 207
254 250 246 245 245 243 242 239 234 229 227 224 221 218 216 214 213 212 210 208 208 208 208 208 208 207 206 206 207 207 207 207 207 207 208 208 209 209 208 208 208 208
259 252 248 245 244 243 243 241 238 234 231 227 223 220 217 214 212 210 209 208 208 208 208 208 208 208 207 207 207 206 206 207 207 207 208 208 209 209 210 210 209 210
268 259 254 250 247 245 243 240 238 235 233 231 227 223 220 216 213 212 210 210 209 207 207 207 207 207 208 207 206 206 205 205 206 206 207 207 208 209 210 211 211 211
282 271 263 258 254 250 246 241 238 235 232 230 227 225 223 220 217 214 212 211 210 208 207 206 205 206 207 206 206 205 205 205 205 205 204 204 206 207 209 210 211 211
296 282 272 265 259 254 249 244 239 236 232 229 227 225 224 222 219 217 213 211 210 209 208 206 205 206 207 207 206 204 204 204 204 204 203 202 202 204 206 208 209 211
312 296 282 272 264 257 252 246 241 237 232 229 227 226 224 221 219 217 215 213 211 208 207 207 207 208 208 208 207 205 203 203 203 203 202 201 200 200 202 204 207 209
330 314 296 282 270 261 255 249 243 237 232 229 226 224 222 219 217 216 215 214 212 209 208 208 209 209 209 208 208 207 204 202 202 202 202 201 200 199 199 200 203 206
339 328 313 296 281 268 259 252 245 238 232 228 224 221 219 217 216 216 215 213 212 211 211 210 211 211 210 209 209 208 207 204 202 201 201 200 200 200 199 199 200 202
339 335 325 311 296 280 267 255 246 238 232 227 223 220 217 215 215 214 213 212 212 212 212 213 212 212 211 211 210 210 209 206 203 202 201 200 201 201 200 199 199 198
339 336 330 323 311 295 277 261 248 240 234 229 224 218 215 214 213 212 212 211 211 212 213 214 214 213 213 211 210 210 209 207 204 202 202 202 202 202 200 200 199 199
337 335 331 327 321 307 287 268 255 245 238 231 224 219 216 214 212 211 211 210 209 210 211 213 215 214 212 211 210 209 208 207 204 202 201 202 203 202 201 201 201 201
335 333 330 327 323 312 295 278 263 251 242 234 227 222 219 217 215 213 211 210 209 208 209 212 214 212 209 210 209 207 205 204 202 200 199 199 200 201 202 202 202 201
331 330 327 325 321 311 299 287 273 259 248 238 229 224 221 218 216 214 213 211 209 208 209 210 210 209 208 207 205 201 199 200 200 198 197 198 198 199 201 201 201 200
326 326 324 321 316 308 300 291 279 266 254 242 231 227 224 221 218 216 215 213 211 210 209 208 208 207 205 204 201 197 197 197 196 195 195 196 196 197 199 200 199 199
321 322 320 316 311 304 298 290 280 268 257 246 236 231 228 225 220 216 215 214 213 212 210 208 208 205 203 202 199 197 197 196 192 191 192 193 193 193 194 195 196 196
318 318 317 314 309 303 297 290 281 269 256 246 238 233 230 227 223 218 217 215 213 212 210 208 208 205 202 201 198 197 198 195 191 190 190 189 188 187 188 191 193 193